764  
SXUS52 KTAE 031915  
OSOTAE  
OSOTAE  
NORTH FLORIDA/SOUTH ALABAMA/SOUTHWEST GEORGIA WEATHER ROUNDUP  
NATIONAL WEATHER SERVICE TALLAHASSEE FLORIDA  
200 PM EST SAT DEC 03 2022  
 
NOTE: "FAIR" INDICATES FEW OR NO CLOUDS BELOW 12,000 FEET WITH NO  
SIGNIFICANT WEATHER AND/OR OBSTRUCTIONS TO VISIBILITY.  
 
!FLZ017-115-028-034-025-032000   
..NORTH FLORIDA
 
 
 
CITY SKY/WX TMP DP RH WIND PRES REMARKS  
TALL INTL ARPT MOSUNNY 78 58 49 SW9 30.28F  
FSU LOVE BLDG N/A 77 57 50 S9 N/A  
APALACHICOLA SUNNY 75 65 70 S6 30.29F  
PERRY NOT AVBL  
CROSS CITY SUNNY 80 57 45 S5 30.28F  
JACKSONVILLE MOSUNNY 78 58 49 S5 30.27F  

 
 
!FLZ112-006-005-002-011-032000   
..FLORIDA PANHANDLE
 
 
 
CITY SKY/WX TMP DP RH WIND PRES REMARKS  
MARIANNA CLOUDY 79 63 57 SW12 30.26F  
BONIFAY NOT AVBL  
PANAMA CITY NW PTSUNNY 77 67 71 S10 30.28F  
TYNDALL AFB SUNNY 75 63 65 S10 30.28F  
TYND DRONE APT FAIR 80 67 63 S9 30.25F  
DE FUNIAK SPR MOCLDY 77 65 66 MISG 30.29F  
EGLIN AFB CLOUDY 73 70 88 S7 30.26F  
DESTIN CLOUDY 77 68 73 SE6 30.28F  
HURLBURT PTSUNNY 74 68 82 S7 30.27F  
CRESTVIEW CLOUDY 77 66 68 SW5 30.29F  
PENSACOLA PTSUNNY 77 67 71 S9 30.28F  

 
 
!ALZ063-066-032000   
..SOUTH ALABAMA
 
 
 
CITY SKY/WX TMP DP RH WIND PRES REMARKS  
DOTHAN CLOUDY 76 64 66 SW8 30.31F  
OZARK CAIRNS PTSUNNY 74 63 69 SW7 30.28F  
FT RUCKER HELI CLOUDY 74 64 69 SW9 30.28F  
RUCKER HELI 3 FAIR 75 64 68 SW5 30.27F  
RUCKER HELI 2 CLOUDY 73 65 75 SW3 30.26S HAZE  
FLORALA APT CLOUDY 79 63 57 SW7 30.30F  
ANDALUSIA PTSUNNY 80 63 55 W8 30.26F  
TROY PTSUNNY 78 63 59 W9 30.28F  
EUFALA CLOUDY 78 63 59 VRB3 30.28F  
MOBILE PTSUNNY 78 68 71 S8 30.27F  

 
 
!GAZ120>161-032000   
..SOUTHWEST AND SOUTH CENTRAL GEORGIA
 
 
 
CITY SKY/WX TMP DP RH WIND PRES REMARKS  
THOMASVILLE FAIR 77 57 50 S6 30.29F  
BAINBRIDGE SUNNY 80 59 48 SW9 30.28F  
MOODY AFB SUNNY 79 56 43 S8 30.26F  
VALDOSTA SUNNY 80 56 43 S8 30.28F  
MOULTRIE SUNNY 77 59 53 S5 30.28F  
BLAKELY CLOUDY 75 59 57 W7 30.29S  
ALBANY CLOUDY 77 56 48 SW10 30.29F  
TIFTON NOT AVBL  
FITZGERALD FAIR 79 58 48 SW8 30.29F  
CORDELE CLOUDY 76 57 51 W10 30.29F  
AMERICUS MOCLDY 73 60 63 SW6 30.28F  
HOMERVILLE FAIR 79 55 44 SW8 30.29F  

 
 
!GMZ750-755-770-775-032000   
..COASTAL AND BUOY OBS
 
 
 
STATION/POSITION TIME TEMP WIND PRES VSBY WAVE  
AIR SEA DIR/SP/G HT/PER  
(UTC) (F) (DEG/KT/KT) (MB) (MI) (FT/S)  
KEATON BEACH 1900 70 180/ 8/ 9 1025.6F  
CEDAR KEY 1900 75 300/ 5/ 6 1026.1F  
C TOWER 1900 71 1025.6F  
APALACHICOLA BUO 1850 72 70/ 8/ 10 1024.5F 2/ 6  
PANAMA CITY BUOY 1850 75 150/ 6/ 8 1026.2F 3/ 6  
MOBILE BUOY 1900 75 160/ 4/ 6 1025.4  
ORANGE BCH AL BU 1850 72 71 170/ 6/ 6 1025.0F 2/ 5  

 
 
 
CLICK HERE TO GO TO PREVIOUS BULLETINS.

The Nexlab FL Page
The Nexlab GA Page
The Nexlab AL Page Main Text Page